Location: Alta Number 3 Dam
(37.8867°N, 107.8490°W)
Time: 17:36:17
(UTC+00:00)

Daily predictions for brighter satellites

Satellite Brightness Start Highest point End
(mag) Time Altitude Azimuth Time Altitude Azimuth Time Altitude Azimuth
Cosmos 1151 Rocket 3.6 12:00:54 10° SW 12:04:43 33° WNW 12:08:35 10° NNW
Sich 1 4.0 12:03:02 10° NW 12:06:32 25° W 12:09:59 10° SW
Cosmos 1743 2.7 12:02:59 10° N 12:06:47 83° E 12:10:34 10° S
Cosmos 1441 Rocket 3.0 12:04:25 10° SSW 12:08:05 75° W 12:11:48 10° N
Meteor 1-10 Rocket 4.4 12:02:52 10° SSW 12:08:12 48° WNW 12:13:34 10° N
Meteor 1-27 Rocket 3.7 12:03:09 10° S 12:08:50 81° W 12:14:39 10° N
USA 307 2.8 12:06:30 12° SW 12:10:16 82° NW 12:14:27 10° NE
Cosmos 407 Rocket 3.6 12:05:40 10° NNW 12:10:53 59° WSW 12:16:07 10° S
Meteor 1-4 Rocket 2.9 12:07:40 10° N 12:11:16 68° E 12:14:53 10° SSE
ASTRO E2 4.4 12:13:19 10° SW 12:16:26 23° SSE 12:19:34 10° ESE
YAOGAN 6 4.0 12:17:46 10° NNW 12:20:30 20° WNW 12:23:14 10° WSW
COSMO-SKYMED 1 3.1 12:16:43 10° SSE 12:21:01 66° ENE 12:25:19 10° N
CZ-2C R/B 3.5 12:15:59 10° N 12:21:36 51° WNW 12:27:02 10° SW
ARIANE 5 R/B 3.9 12:20:57 10° NNW 12:24:22 18° WNW 12:27:44 10° WSW
Cosmos 1697 Rocket 2.7 12:19:01 10° NNW 12:24:42 90° SW 12:30:21 10° SSE
Cosmos 1802 Rocket 4.1 12:18:33 10° S 12:24:59 89° W 12:31:24 10° N
USA 306 3.2 12:22:41 10° WSW 12:26:40 48° NW 12:30:41 10° NE
ERBS 3.5 12:25:10 11° W 12:27:16 20° NW 12:29:33 10° NNE
Cosmos 44 Rocket 3.8 12:24:17 10° SSW 12:28:57 61° ESE 12:33:37 10° NE
Atlas Centaur 2 3.3 12:23:54 10° WSW 12:30:49 43° S 12:36:27 10° ESE
